Regional Weather Roundup
Issued by NWS

Home | Current Version | Previous Version | Graphics & Text | Print | Product List | Glossary On
Versions: 1 2 3 4 5 6 7 8 9 10 11 12 13 14 15 16 17 18 19 20 21 22 23 24 25 26 27 28 29 30 31 32 33 34 35 36 37 38 39 40 41 42 43 44 45 46 47 48 49 50
000
ASUS43 KMPX 051410
RWRMN
WEATHER ROUNDUP FOR MINNESOTA
NATIONAL WEATHER SERVICE TWIN CITIES/CHANHASSEN MN
800 AM CST THU MAR 05 2015


NOTE: "FAIR" INDICATES FEW OR NO CLOUDS BELOW 12,000 FEET WITH NO
SIGNIFICANT WEATHER AND/OR OBSTRUCTIONS TO VISIBILITY. N/A MEANS
CURRENT SKY AND/OR WEATHER CONDITIONS ARE NOT AVAILABLE.

MNZ060>063-068>070-051500-
   Twin Cities Metro

CITY           SKY/WX    TMP DP  RH WIND       PRES   REMARKS
TWIN CITIES    MOSUNNY   -4 -10  75 SW5       30.51R WCI -15
ST PAUL        MOSUNNY   -2  -8  76 SW3       30.52R
CRYSTAL        MOSUNNY   -5 -10  79 CALM      30.49R
BLAINE         SUNNY     -4  -8  84 CALM      30.48R
LAKEVILLE      SUNNY     -9 -13  84 SW2       30.49R
EDEN PRAIRIE   MOSUNNY   -7 -12  79 SW5       30.49R WCI -18
SOUTH ST PAUL  MOSUNNY   -3  -9  73 W6        30.51R WCI -15
LAKE ELMO      FAIR      -8 -13  77 CALM      30.49R
$$
MNZ001>005-007-008-013>017-022>024-027-028-051500-
   Northwest Minnesota

CITY           SKY/WX    TMP DP  RH WIND       PRES   REMARKS
BEMIDJI        MOSUNNY  -15 -20  80 CALM      30.31R
HALLOCK        MOCLDY   -15 -20  76 S9        30.30F WCI -33
ROSEAU         MOCLDY   -11 -18  70 SW9       30.29R WCI -29
WARROAD        PTCLDY   -11 -18  70 SW6       30.27S WCI -25
THIEF RVR FALL MOCLDY   -11 -20  64 S8        30.32R WCI -28
CROOKSTON      MOCLDY    -9 -15  77 SE7       30.36F WCI -24
FOSSTON        MOCLDY   -13 -17  84 S9        30.33S WCI -31
DETROIT LAKES  MOCLDY   -13 -17  84 S5        30.36S WCI -25
MOORHEAD       MOCLDY    -6  -9  84 S7        30.40S WCI -20
PARK RAPIDS    PTSUNNY  -14 -18  82 S6        30.33S WCI -28
MAHNOMEN       FAIR     -10 -15  80 S10       30.35R WCI -29
$$
MNZ006-009>011-018-025>026-051500-
   North Central Minnesota

CITY           SKY/WX    TMP DP  RH WIND       PRES   REMARKS
BAUDETTE       MOCLDY   -16 -21  78 SW5       30.27S WCI -29
FLAG ISLAND    PTCLDY   -18 -24  76 S7        30.26S WCI -35
INTL FALLS     PTSUNNY  -18 -22  82 SW7       30.30S WCI -35
WASKISH        PTSUNNY   -9 -15  77 CALM      30.31S
BIG FORK       PTSUNNY  -22 -29  69 CALM      30.31S
LONGVILLE      PTSUNNY  -24 -29  76 CALM      30.36R
GRAND RAPIDS   PTSUNNY  -20 -20 100 S5        30.32S WCI -33
CRANE LAKE     PTSUNNY  -24 -29  76 CALM      30.36R
ORR            PTSUNNY  -18 -24  76 CALM      30.29R
COOK           PTSUNNY  -26 -33  68 CALM      30.32S
WALKER         FAIR     -14 -19  79 S3        30.34R
$$
MNZ012-019>021-037-051500-
   Northeast Minnesota

CITY           SKY/WX    TMP DP  RH WIND       PRES   REMARKS
DULUTH         FAIR      -9 -16  71 NW10      30.33R WCI -27
ELY            PTSUNNY  -18 -24  76 SW3       30.31S
HIBBING        PTSUNNY  -24 -30  73 CALM      30.34R
EVELETH        PTSUNNY  -22 -29  69 CALM      30.34S
DULUTH HARBOR  MOSUNNY  -11 -17  77 CALM      30.47R
TWO HARBORS    MOSUNNY   -9 -18  64 CALM      30.34R
SILVER BAY     MOSUNNY   -8 -17  65 CALM      30.33R
GRAND MARAIS     N/A      0  -8  69 W6        30.39R WCI -12
G MARAIS ARPRT MOSUNNY   -9 -18  64 NW3       30.21S
$$
MNZ029>031-032-039>041-046>048-054>057-064-051500-
   West Central Minnesota

CITY           SKY/WX    TMP DP  RH WIND       PRES   REMARKS
FERGUS FALLS   PTCLDY   -13 -18  77 SE6       30.46R WCI -27
WHEATON        MOCLDY   -11 -18  70 S6        30.44S WCI -25
MORRIS         PTSUNNY  -15 -18  84 S3        30.42S
ALEXANDRIA     MOSUNNY  -14 -18  82 SW6       30.39R WCI -28
ELBOW LAKE     FAIR     -12 -17  81 S5        30.41R WCI -24
WADENA         MOSUNNY  -13 -17  84 SW6       30.37R WCI -27
GLENWOOD       PTSUNNY  -15 -18  84 S3        30.41S
APPLETON       MOSUNNY   -9 -15  77 S5        30.46S WCI -21
BENSON         MOSUNNY  -15 -18  84 CALM      30.44R
ORTONVILLE     MOCLDY    -8 -17  65 S3        30.43S
MADISON        MOSUNNY   -8 -15  71 CALM      30.46S
WILLMAR        FAIR      -8 -15  71 SW3       30.46R
$$
MNZ033>034-036-042>043-049>051-058-059-051500-
   Central Minnesota

CITY           SKY/WX    TMP DP  RH WIND       PRES   REMARKS
ST CLOUD       PTSUNNY  -12 -16  82 S3        30.46R
SAUK CENTRE    FAIR     -14 -18  81 CALM      30.43R
PAYNESVILLE    MOSUNNY  -15 -19  82 CALM      30.45R
AITKIN         PTSUNNY   -8 -15  71 CALM      30.38R
PINE RIVER     CLOUDY   -24 -27  83 CALM      30.40R
BRAINERD       PTSUNNY  -20 -23  86 SW3       30.40R
STAPLES        PTSUNNY  -20 -26  76 CALM      30.38S
LONG PRAIRIE   FAIR     -17 -22  76 CALM      30.41R
LITTLE FALLS   PTSUNNY  -18 -26  69 CALM      30.45R
LITCHFIELD     MOSUNNY   -8 -13  77 CALM      30.46S
BUFFALO        PTSUNNY   -9 -14  80 SW3       30.49R
MAPLE LAKE     PTSUNNY   -8 -12  84 SW3       30.48R
$$
MNZ037-044-045-052-053-051500-
   East Central Minnesota

CITY           SKY/WX    TMP DP  RH WIND       PRES   REMARKS
PRINCETON      MOSUNNY  -15 -20  76 CALM      30.46R
MORA           PTSUNNY  -17 -24  70 CALM      30.46R
CAMBRIDGE      MOSUNNY  -15 -24  64 CALM      30.46R
RUSH CITY      FAIR     -10 -15  80 CALM      30.47R
MOOSE LAKE     MOSUNNY  -18 -26  69 CALM      30.41R
HINCKLEY       FAIR     -18 -24  76 CALM      30.45R
CLOQUET        MOSUNNY  -11 -18  70 W6        30.37R WCI -25
MCGREGOR       MOSUNNY   -9 -15  77 CALM      30.40R
$$
MNZ071>073-080-081-089-090-097-098-051500-
   Southwest Minnesota

CITY           SKY/WX    TMP DP  RH WIND       PRES   REMARKS
MONTEVIDEO     FAIR      -6  -9  84 W6        30.48R WCI -18
GRANITE FALLS  MOSUNNY   -7 -13  76 S6        30.50R WCI -20
CANBY          PTSUNNY   -4 -13  66 SW3       30.45F
MARSHALL       MOSUNNY   -4 -13  65 SW7       30.46R WCI -18
REDWOOD FALLS  MOSUNNY   -8 -14  74 SW6       30.49R WCI -21
OLIVIA         MOSUNNY   -6 -11  77 SW5       30.48R WCI -17
PIPESTONE      MOSUNNY  -11 -17  77 CALM      30.40S
WINDOM         MOSUNNY   -8 -13  77 CALM      30.46R
WORTHINGTON    MOSUNNY   -8  -9  92 CALM      30.46R
JACKSON        MOSUNNY   -6 -13  71 W3        30.46R
TRACY          MOSUNNY   -6 -13  71 SW8       30.45S WCI -21
SLAYTON        PTSUNNY   -7 -15  69 CALM      30.43R
$$
MNZ065>067-074>077-082>085-091>093-051500-
   South Central Minnesota

CITY           SKY/WX    TMP DP  RH WIND       PRES   REMARKS
MANKATO        MOSUNNY   -6 -17  59 W5        30.50R WCI -17
NEW ULM        MOSUNNY   -9 -15  77 W3        30.50R
ST JAMES       MOSUNNY   -2  -9  71 SW5       30.51R WCI -12
FAIRMONT       SUNNY     -2  -9  71 W5        30.47R WCI -12
GLENCOE        MOSUNNY   -8 -11  83 MISG      30.49R
FARIBAULT      SUNNY     -8 -13  77 CALM      30.49R
OWATONNA       SUNNY     -8 -11  84 SW5       30.48R WCI -19
WASECA         SUNNY     -9 -13  84 CALM      30.50R
ALBERT LEA     SUNNY     -6  -9  84 CALM      30.47R
$$
MNZ078>079-086>088-094>096-051500-
   Southeast Minnesota

CITY           SKY/WX    TMP DP  RH WIND       PRES   REMARKS
ROCHESTER      MOSUNNY   -9 -14  78 W8        30.46R WCI -25
RED WING       SUNNY     -6 -11  77 W3        30.50R
STANTON        SUNNY     -7 -13  76 CALM      30.49R
DODGE CENTER   SUNNY     -9 -15  77 W6        30.45R WCI -23
WINONA         SUNNY     -4 -11  71 CALM      30.54R
AUSTIN         MOSUNNY   -6  -9  84 NW7       30.47R WCI -20
PRESTON        MOSUNNY   -9 -14  78 W8        30.46R WCI -25
$$
ABBREVIATIONS USED IN REMARKS
   TC - TEMPERATURES IN CELSIUS
  WCI - WIND CHILL INDEX
   HX - HEAT INDEX
  VSB - VISIBILITY
$$


USA.gov is the U.S. government's official web portal to all federal, state and local government web resources and services.